This is the latest recevied weather packets stored in our database for station/object KE8DDT-7. If no packets are shown the sender has not sent any weather packets the latest 10 day(s).
| Time | Temp. | Humidity | Pressure | Rain* | Wind** | Luminosity | Snow |
|---|---|---|---|---|---|---|---|
| 1777666664 | 8.89° C | 54% | 1005.9 hPa | 0 mm | - | 246 W/m² | - |
| 1777666364 | 8.89° C | 53% | 1005.9 hPa | 0 mm | - | 253 W/m² | - |
| 1777666064 | 9.44° C | 53% | 1005.9 hPa | 0 mm | - | 258 W/m² | - |
| 1777665764 | 9.44° C | 53% | 1005.8 hPa | 0 mm | - | 195 W/m² | - |
| 1777665464 | 9.44° C | 53% | 1005.8 hPa | 0 mm | - | 190 W/m² | - |
| 1777665164 | 9.44° C | 53% | 1005.7 hPa | 0 mm | - | 244 W/m² | - |
| 1777664864 | 9.44° C | 55% | 1005.8 hPa | 0 mm | - | 241 W/m² | - |
| 1777664571 | 9.44° C | 54% | 1005.7 hPa | 0 mm | - | 197 W/m² | - |
| 1777664264 | 9.44° C | 53% | 1005.8 hPa | 0 mm | - | 241 W/m² | - |
| 1777663964 | 8.89° C | 53% | 1005.8 hPa | 0 mm | - | 288 W/m² | - |
| 1777663638 | 8.89° C | 55% | 1005.7 hPa | 0 mm | - | 253 W/m² | - |
| 1777662815 | 8.89° C | 53% | 1005.6 hPa | 0 mm | - | 320 W/m² | - |
| 1777662515 | 8.89° C | 54% | 1005.6 hPa | 0 mm | - | 265 W/m² | - |
| 1777662215 | 9.44° C | 54% | 1005.7 hPa | 0 mm | - | 158 W/m² | - |
| 1777661915 | 9.44° C | 52% | 1005.6 hPa | 0 mm | - | 146 W/m² | - |
| 1777661615 | 9.44° C | 52% | 1005.5 hPa | 0 mm | - | 195 W/m² | - |
| 1777661315 | 9.44° C | 55% | 1005.5 hPa | 0 mm | - | 264 W/m² | - |
| 1777661015 | 8.89° C | 55% | 1005.5 hPa | 0 mm | - | 387 W/m² | - |
| 1777660715 | 8.89° C | 54% | 1005.5 hPa | 0 mm | - | 357 W/m² | - |
| 1777660415 | 8.89° C | 54% | 1005.5 hPa | 0 mm | - | 483 W/m² | - |
| 1777660115 | 8.89° C | 54% | 1005.5 hPa | 0 mm | - | 427 W/m² | - |
| 1777659815 | 8.89° C | 53% | 1005.4 hPa | 0 mm | - | 404 W/m² | - |
| 1777659515 | 8.89° C | 54% | 1005.4 hPa | 0 mm | - | 360 W/m² | - |
| 1777659215 | 8.89° C | 52% | 1005.4 hPa | 0 mm | - | 260 W/m² | - |
| 1777658915 | 8.89° C | 51% | 1005.4 hPa | 0 mm | - | 257 W/m² | - |
* Rain latest hour (hover to see other rain measurements)
** Current wind speed in m/s (hover to see current wind gust speed)